Flag for Switzerland Weather past 2 weeks in Solothurn, Solothurn, Switzerland

Now
63 °F

Mild.


Feels Like: 63 °F
Forecast: 33 / 65 °F
Wind: 12 mph from East

Location: Grenchen

Current Time: Sep 23, 2014 at 4:46:08 PM

Latest Report: Sep 23, 2014 at 4:00 PM


Visibility: N/A

Pressure: 30.02 "Hg

Humidity: 49%

Dew point: 43 °F

Location of SolothurnLocation

Historic Weather in Solothurn — Graph

°F

Solothurn temperature yesterday

Maximum temperature yesterday: 63 °F (at 4:00 PM)
Minimum temperature yesterday: 50 °F (at 11:00 PM)
Average temperature yesterday: 57 °F

Past Weeks' High & Low Weather Summary

 TemperatureHumidityPressure
High78 °F (Sep 8, 5:00 PM)100% (Sep 9, 9:00 AM)30.22 "Hg (Sep 9, 9:00 AM)
Low43 °F (Sep 23, 7:00 AM)42% (Sep 16, 5:00 PM)29.80 "Hg (Sep 17, 4:00 PM)
Average61 °F81%30.02 "Hg
* Reported Sep 8 3:00 PM — Sep 23 3:00 PM, Solothurn, Weather by CustomWeather, © 2014

Note: Actual official high and low records may vary slightly from our data, if they occured in-between our weather recording intervals... More about our weather records

Advertising

Solothurn weather history for previous 24 hours

 ConditionsComfort  
Time TempWeatherWind HumidityBarometerVisibility
3:00 PM
Sep 23
62 °FRefreshingly cool.12 mph46%30.04 "HgN/A
2:00 PM60 °FRefreshingly cool.14 mph46%30.06 "HgN/A
1:00 PM58 °FRefreshingly cool.14 mph53%30.09 "HgN/A
12:00 PM56 °FRefreshingly cool.14 mph56%30.12 "HgN/A
11:00 AM53 °FCool.18 mph57%30.14 "HgN/A
10:00 AM51 °FCool.17 mph67%30.16 "HgN/A
9:00 AM46 °FCool.10 mph82%30.20 "HgN/A
8:00 AM43 °FQuite cool.3 mph81%30.22 "HgN/A
7:00 AM43 °FQuite cool.1 mph83%30.20 "HgN/A
6:00 AM44 °FQuite cool.6 mph84%30.18 "HgN/A
5:00 AM44 °FQuite cool.3 mph87%30.19 "HgN/A
4:00 AM46 °FCool.7 mph84%30.18 "HgN/A
3:00 AM46 °FCool.7 mph89%30.18 "HgN/A
2:00 AM46 °FCool.6 mph87%30.17 "HgN/A
1:00 AM46 °FCool.3 mph88%30.18 "HgN/A
12:00 AM51 °FCool.1 mph77%30.16 "HgN/A
11:00 PM
Sep 22
50 °FCool.6 mph80%30.17 "HgN/A
10:00 PM51 °FCool.6 mph76%30.18 "HgN/A
9:00 PM53 °FCool.5 mph65%30.18 "HgN/A
8:00 PM54 °FCool.2 mph66%30.16 "HgN/A
7:00 PM57 °FRefreshingly cool.12 mph58%30.14 "HgN/A
6:00 PM60 °FRefreshingly cool.10 mph53%30.11 "HgN/A
5:00 PM62 °FRefreshingly cool.9 mph47%30.08 "HgN/A
4:00 PM63 °FMild.9 mph49%30.07 "HgN/A
Weather by CustomWeather, © 2014

See weather overviewHow to use our weather pages